Location: *
(37.9500°N, 27.3666°E)
Time: 04:30:12
(UTC+00:00)

Cosmos 332 Rocket - Pass Details

Date: 24 October 2021
Orbit: 682 x 703 km, 74.0° (Epoch: 03 December)

Event Time Altitude Azimuth Distance (km) Brightness Sun altitude
Rises 15:57:56 0° 184° (S) 3,072 7.3 -8.0°
Reaches altitude 10° 16:00:17 10° 179° (S) 2,157 6.4 -8.4°
Maximum altitude 16:05:00 51° 104° (ESE) 873 4.0 -9.3°
Drops below altitude 10° 16:09:43 10° 29° (NNE) 2,161 6.0 -10.3°
Sets 16:12:04 0° 24° (NNE) 3,079 6.8 -10.7°
